Massena, NY

10:27 AM EST on February 23, 2018 (GMT -0500)
Massena International-Richards

Weather History for KMSS - September, 2014

Change the Weather History Date:

Tuesday, September 30, 2014

  Actual Average Record
Temperature  
Mean Temperature 56 °F 52 °F  
Max Temperature 63 °F 63 °F 82 °F (1953)
Min Temperature 48 °F 42 °F 26 °F (1951)
Degree Days  
Heating Degree Days 9 13  
Month to date heating degree days 207 223  
Since 1 July heating degree days 267 300  
Cooling Degree Days 0 0  
Month to date cooling degree days 41 25  
Year to date cooling degree days 329 361  
Growing Degree Days 4 (Base 50)    
Moisture  
Dew Point 50 °F    
Average Humidity 88    
Maximum Humidity 100    
Minimum Humidity 75    
Precipitation  
Precipitation 0.00 in 0.12 in 3.00 in (2010)
Month to date precipitation 1.21 3.65  
Year to date precipitation 26.67 26.19  
Sea Level Pressure  
Sea Level Pressure 30.00 in    
Wind  
Wind Speed 10 mph (NE)    
Max Wind Speed 20 mph    
Max Gust Speed 26 mph    
Visibility 7 miles    
Events      
T = Trace of Precipitation, MM = Missing Value Source: NWS Daily Summary

Daily Weather History Graph

Daily Weather History Graph

Search for Another Location

Airport or City:

Trip Planner

Search our weather history database for the weather conditions in past years. The results will help you decide how hot, cold, wet, or windy it might be!

Date:

Astronomy

Sep. 30, 2014 Rise Set
Actual Time 6:56 AM EDT 6:41 PM EDT
Civil Twilight 6:26 AM EDT 7:10 PM EDT
Nautical Twilight 5:52 AM EDT 7:44 PM EDT
Astronomical Twilight 5:18 AM EDT 8:19 PM EDT
Moon 1:13 PM EDT (9/30) 10:57 PM EDT (9/30)
Length of Visible Light 12h 44m
Length of Day
11h 45m
Waxing Crescent, 38% of the Moon is Illuminated
Sep 30
Waxing Crescent
Oct 1
First Quarter
Oct 8
Full
Oct 15
Last Quarter
Oct 23
New

Hourly Weather History & Observations

Time (EDT) Temp. Dew Point Humidity Pressure Visibility Wind Dir Wind Speed Gust Speed Precip Events Conditions
12:53 AM 48.9 °F 46.0 °F 90% 29.96 in 7.0 mi ENE 10.4 mph - N/A   Scattered Clouds
1:03 AM 48.9 °F 46.9 °F 93% 29.95 in 7.0 mi ENE 8.1 mph - N/A   Mostly Cloudy
1:53 AM 50.0 °F 48.0 °F 93% 29.96 in 5.0 mi East 9.2 mph - N/A   Overcast
2:53 AM 48.9 °F 46.9 °F 93% 29.96 in 5.0 mi ENE 8.1 mph - N/A   Overcast
3:53 AM 48.9 °F 46.9 °F 93% 29.97 in 5.0 mi East 8.1 mph - N/A   Overcast
4:50 AM 48.2 °F 46.4 °F 93% 29.97 in 5.0 mi East 9.2 mph - N/A   Overcast
4:53 AM 48.9 °F 48.0 °F 97% 29.98 in 5.0 mi East 9.2 mph - N/A   Overcast
5:53 AM 48.0 °F 46.9 °F 96% 29.98 in 5.0 mi ENE 10.4 mph - N/A   Overcast
6:53 AM 48.0 °F 46.9 °F 96% 29.99 in 5.0 mi East 8.1 mph - N/A   Overcast
7:53 AM 48.9 °F 48.0 °F 97% 30.00 in 4.0 mi East 9.2 mph - N/A   Overcast
8:53 AM 48.9 °F 48.0 °F 97% 30.01 in 6.0 mi ENE 9.2 mph - N/A   Overcast
9:46 AM 51.1 °F 48.9 °F 92% 30.00 in 6.0 mi ENE 8.1 mph - N/A   Overcast
9:53 AM 51.1 °F 48.9 °F 92% 30.01 in 6.0 mi ENE 9.2 mph - N/A   Overcast
10:53 AM 53.1 °F 50.0 °F 89% 30.01 in 6.0 mi ENE 9.2 mph - N/A   Overcast
11:53 AM 55.9 °F 52.0 °F 87% 30.00 in 6.0 mi NE 9.2 mph - N/A   Overcast
12:41 PM 55.9 °F 52.0 °F 87% 30.00 in 6.0 mi NNE 10.4 mph - N/A   Overcast
12:53 PM 55.9 °F 51.1 °F 84% 30.01 in 5.0 mi NNE 10.4 mph - N/A   Haze
1:51 PM 60.8 °F 53.6 °F 77% 29.98 in 6.0 mi NNE 10.4 mph - N/A   Haze
1:53 PM 61.0 °F 53.1 °F 75% 29.99 in 6.0 mi NNE 8.1 mph - N/A   Haze
2:53 PM 59.0 °F 52.0 °F 78% 29.99 in 7.0 mi NNE 9.2 mph - N/A   Clear
3:53 PM 61.0 °F 53.1 °F 75% 29.98 in 7.0 mi NNE 9.2 mph - N/A   Clear
4:53 PM 60.1 °F 53.1 °F 78% 29.98 in 8.0 mi NNE 9.2 mph - N/A   Clear
5:53 PM 60.1 °F 54.0 °F 80% 30.00 in 7.0 mi NNE 5.8 mph - N/A   Clear
6:53 PM 57.0 °F 53.1 °F 87% 30.01 in 5.0 mi NNE 3.5 mph - N/A   Scattered Clouds
7:53 PM 57.9 °F 54.0 °F 87% 30.03 in 10.0 mi NE 10.4 mph - N/A   Clear
8:53 PM 57.0 °F 54.0 °F 89% 30.04 in 10.0 mi ENE 10.4 mph - N/A   Clear
9:53 PM 50.0 °F 48.0 °F 93% 29.97 in 10.0 mi ENE 10.4 mph - N/A   Clear
10:17 PM 55.9 °F 53.1 °F 90% 30.06 in 10.0 mi NE 10.4 mph - N/A   Mostly Cloudy
10:53 PM 57.0 °F 53.1 °F 87% 30.07 in 9.0 mi ENE 16.1 mph - N/A   Mostly Cloudy
11:06 PM 55.9 °F 53.1 °F 90% 30.06 in 9.0 mi ENE 12.7 mph - N/A   Overcast
11:53 PM 55.0 °F 53.1 °F 93% 30.07 in 10.0 mi ENE 15.0 mph - N/A   Mostly Cloudy